Moses Lake, WA
on Wednesday, January 16, 2013

Wednesday
Previous Day Next Day
Daily Summary
 ActualAverageRecord
Temperature
Mean Temperature °F 30°F  
Max Temperature 32°F 36°F 56°F (2011)
Min Temperature 21°F 24°F 3°F (1997)
Degree Days
Heating Degree Days 38 35  
Month to date heating degree days 600 579  
Since 1 July heating degree days 2808 3166  
Cooling Degree Days 0 0  
Month to date cooling degree days 0 0  
Year to date cooling degree days 0 0  
Moisture
Dew Point 22°F   
Average Humidity 82    
Maximum Humidity 92    
Minimum Humidity 72    
Precipitation
Precipitation 0.00 in 0.03 in 0.34 in (1986)
Month to date precipitation 0.27 0.75  
Year to date precipitation 0.27 0.75  
Wind
Wind Speed 1 mph   
Max Wind Speed 7 mph   
Max Gust Speed 8 mph   
Visibility 8 miles   
Events     

Key: T is trace of precipitation, MM is missing value
Source: NWS Daily Summary
Time(PST)TemperatureDew PointHumidity Pressure Visibility Wind DirectionWind SpeedGust SpeedPrecipitationEvents Conditions
12:25 AM 23.0°F 19.4°F 86% 30.56 in 2.5 miles NNW 3.5 mph - N/A   Overcast
12:32 AM 24.8°F 21.2°F 86% 30.56 in 4.0 miles Calm Calm - N/A   Overcast
12:52 AM 23.0°F 19.9°F 88% 30.61 in 4.0 miles Calm Calm - N/A   Overcast
1:52 AM 23.0°F 19.9°F 88% 30.62 in 5.0 miles Calm Calm - N/A   Overcast
1:59 AM 24.8°F 21.2°F 86% 30.57 in 6.0 miles Calm Calm - N/A   Overcast
2:52 AM 24.1°F 19.9°F 84% 30.62 in 5.0 miles Calm Calm - N/A   Overcast
3:52 AM 23.0°F 19.0°F 85% 30.62 in 5.0 miles Calm Calm - N/A   Overcast
4:00 AM 23.0°F 19.4°F 86% 30.57 in 5.0 miles Calm Calm - N/A   Overcast
4:52 AM 23.0°F 19.9°F 88% 30.63 in 7.0 miles Calm Calm - N/A   Overcast
5:52 AM 24.1°F 19.9°F 84% 30.62 in 7.0 miles Calm Calm - N/A   Overcast
6:52 AM 23.0°F 19.9°F 88% 30.64 in 8.0 miles SW 3.5 mph - N/A   Overcast
7:52 AM 24.1°F 19.9°F 84% 30.65 in 8.0 miles Calm Calm - N/A   Overcast
8:52 AM 25.0°F 21.0°F 85% 30.66 in 6.0 miles Calm Calm - N/A   Overcast
9:52 AM 27.0°F 21.9°F 81% 30.67 in 6.0 miles Calm Calm - N/A   Haze
10:52 AM 28.9°F 24.1°F 82% 30.66 in 7.0 miles Calm Calm - N/A   Overcast
11:52 AM 30.9°F 24.1°F 76% 30.63 in 8.0 miles Calm Calm - N/A   Overcast
12:52 PM 30.9°F 24.1°F 76% 30.61 in 10.0 miles Calm Calm - N/A   Overcast
1:52 PM 32.0°F 24.1°F 73% 30.60 in 10.0 miles NE 3.5 mph - N/A   Overcast
2:52 PM 32.0°F 24.1°F 73% 30.61 in 10.0 miles ENE 3.5 mph - N/A   Overcast
3:52 PM 32.0°F 24.1°F 73% 30.61 in 10.0 miles Calm Calm - N/A   Overcast
4:52 PM 30.9°F 24.1°F 76% 30.61 in 10.0 miles Calm Calm - N/A   Overcast
5:01 PM 30.2°F 24.8°F 80% 30.56 in 10.0 miles Calm Calm - N/A   Overcast
5:52 PM 30.9°F 24.1°F 76% 30.60 in 10.0 miles Calm Calm - N/A   Overcast
6:52 PM 30.9°F 24.1°F 76% 30.61 in 10.0 miles Calm Calm - N/A   Overcast
7:44 PM 30.2°F 24.8°F 80% 30.56 in 10.0 miles North 4.6 mph - N/A   Overcast
7:52 PM 30.9°F 24.1°F 76% 30.61 in 10.0 miles Calm Calm - N/A   Overcast
8:28 PM 30.2°F 24.8°F 80% 30.56 in 10.0 miles Calm Calm - N/A   Overcast
8:52 PM 28.9°F 23.0°F 78% 30.61 in 10.0 miles North 4.6 mph - N/A   Overcast
9:52 PM 28.9°F 23.0°F 78% 30.61 in 10.0 miles North 3.5 mph - N/A   Overcast
10:38 PM 28.4°F 23.0°F 80% 30.56 in 9.0 miles North 3.5 mph - N/A   Overcast
10:52 PM 28.0°F 21.9°F 78% 30.62 in 10.0 miles North 6.9 mph - N/A   Overcast
11:05 PM 26.6°F 21.2°F 80% 30.57 in 10.0 miles NNE 4.6 mph - N/A   Mostly Cloudy
11:17 PM 24.8°F 19.4°F 80% 30.57 in 10.0 miles NNE 4.6 mph - N/A   Partly Cloudy
11:52 PM 23.0°F 19.0°F 85% 30.62 in 10.0 miles North 5.8 mph - N/A   Clear
Moon Phase
Jan. 16 Jan. 18 Jan. 26 Feb. 03 Feb. 10
Sunrise:07:38 AM (PST) Moon Rise:09:51 AM (PST)1/16
Sunset:04:36 PM (PST) Moon Set:11:01 PM (PST)1/16

Copyright © 2014 The Weather Underground, Inc.